TimeCST,TemperatureF,Dew PointF,Humidity,Sea Level PressureIn,VisibilityMPH,Wind Direction,Wind SpeedMPH,Gust SpeedMPH,PrecipitationIn,Events,Conditions,WindDirDegrees,DateUTC
12:01 AM,44.6,35.6,71,29.91,5.0,Calm,Calm,-,N/A,,Haze,0,2012-12-18 06:01:00
12:13 AM,44.6,35.6,71,29.91,5.0,Calm,Calm,-,N/A,,Haze,0,2012-12-18 06:13:00
12:21 AM,44.6,35.6,71,29.91,5.0,Calm,Calm,-,N/A,,Haze,0,2012-12-18 06:21:00
12:45 AM,48.2,33.8,58,29.91,5.0,WSW,3.5,-,N/A,,Haze,240,2012-12-18 06:45:00
12:48 AM,48.2,33.8,58,29.91,5.0,WSW,3.5,-,N/A,,Haze,240,2012-12-18 06:48:00
12:55 AM,47.3,33.8,59,29.91,5.0,WSW,4.6,-,N/A,,Haze,250,2012-12-18 06:55:00
12:59 AM,46.4,33.8,62,29.91,6.0,WSW,4.6,-,N/A,,Haze,250,2012-12-18 06:59:00
1:31 AM,50.0,30.2,47,29.91,9.0,SW,4.6,-,N/A,,Clear,220,2012-12-18 07:31:00
1:42 AM,48.2,33.8,58,29.91,9.0,SW,4.6,-,N/A,,Clear,230,2012-12-18 07:42:00
1:55 AM,46.6,33.3,60,29.92,9.0,WSW,5.8,-,N/A,,Clear,240,2012-12-18 07:55:00
2:55 AM,53.8,31.6,43,29.91,9.0,WSW,8.1,-,N/A,,Clear,250,2012-12-18 08:55:00
3:55 AM,54.5,29.7,39,29.90,7.0,SW,4.6,-,N/A,,Clear,230,2012-12-18 09:55:00
4:02 AM,53.6,30.2,41,29.89,5.0,WSW,4.6,-,N/A,,Haze,240,2012-12-18 10:02:00
4:03 AM,53.6,30.2,41,29.89,4.0,WSW,4.6,-,N/A,,Haze,240,2012-12-18 10:03:00
4:06 AM,51.8,32.0,47,29.90,5.0,WSW,4.6,-,N/A,,Haze,240,2012-12-18 10:06:00
4:07 AM,51.8,32.0,47,29.90,4.0,WSW,4.6,-,N/A,,Haze,240,2012-12-18 10:07:00
4:17 AM,50.0,30.2,47,29.89,5.0,WSW,6.9,-,N/A,,Haze,250,2012-12-18 10:17:00
4:20 AM,50.0,30.2,47,29.89,5.0,SW,4.6,-,N/A,,Haze,220,2012-12-18 10:20:00
4:31 AM,53.6,30.2,41,29.89,4.0,WSW,5.8,-,N/A,,Haze,240,2012-12-18 10:31:00
4:44 AM,55.4,30.2,38,29.88,5.0,SW,5.8,-,N/A,,Haze,230,2012-12-18 10:44:00
4:48 AM,55.4,30.2,38,29.88,5.0,SW,3.5,-,N/A,,Haze,230,2012-12-18 10:48:00
4:49 AM,55.4,30.2,38,29.88,5.0,SW,4.6,-,N/A,,Haze,220,2012-12-18 10:49:00
4:55 AM,55.2,29.8,38,29.88,5.0,SW,4.6,-,N/A,,Haze,230,2012-12-18 10:55:00
4:59 AM,55.4,30.2,38,29.88,5.0,SW,4.6,-,N/A,,Haze,230,2012-12-18 10:59:00
5:04 AM,55.4,30.2,38,29.88,5.0,SW,5.8,-,N/A,,Haze,230,2012-12-18 11:04:00
5:14 AM,55.4,30.2,38,29.88,5.0,SW,5.8,-,N/A,,Haze,230,2012-12-18 11:14:00
5:17 AM,55.4,30.2,38,29.88,4.0,SW,6.9,-,N/A,,Haze,230,2012-12-18 11:17:00
5:54 AM,55.4,30.2,38,29.89,4.0,WSW,6.9,-,N/A,,Haze,240,2012-12-18 11:54:00
5:55 AM,55.6,29.7,37,29.89,4.0,WSW,6.9,-,N/A,,Haze,240,2012-12-18 11:55:00
5:58 AM,55.4,30.2,38,29.89,5.0,WSW,5.8,-,N/A,,Haze,240,2012-12-18 11:58:00
6:55 AM,47.5,30.7,52,29.91,10.0,Calm,Calm,-,N/A,,Clear,0,2012-12-18 12:55:00
7:55 AM,47.3,32.2,56,29.92,10.0,Calm,Calm,-,N/A,,Clear,0,2012-12-18 13:55:00
8:55 AM,60.3,33.3,36,29.92,10.0,SSW,5.8,-,N/A,,Clear,200,2012-12-18 14:55:00
9:55 AM,63.5,41.0,44,29.92,10.0,SSW,11.5,-,N/A,,Clear,200,2012-12-18 15:55:00
10:55 AM,68.7,43.2,40,29.93,10.0,SW,10.4,-,N/A,,Clear,220,2012-12-18 16:55:00
11:55 AM,72.1,44.1,36,29.91,10.0,SW,8.1,-,N/A,,Clear,220,2012-12-18 17:55:00
12:55 PM,76.6,46.9,35,29.87,10.0,SW,9.2,-,N/A,,Clear,220,2012-12-18 18:55:00
1:55 PM,79.3,48.2,33,29.84,10.0,SSW,8.1,-,N/A,,Clear,200,2012-12-18 19:55:00
2:55 PM,81.0,45.9,29,29.81,10.0,SSW,11.5,-,N/A,,Clear,200,2012-12-18 20:55:00
3:55 PM,81.3,46.6,29,29.79,10.0,SW,5.8,-,N/A,,Clear,220,2012-12-18 21:55:00
4:55 PM,79.9,46.9,31,29.77,10.0,SSW,3.5,-,N/A,,Clear,210,2012-12-18 22:55:00
5:55 PM,67.3,45.0,45,29.77,10.0,SSE,9.2,-,N/A,,Clear,150,2012-12-18 23:55:00
6:55 PM,64.8,44.6,48,29.79,10.0,SE,6.9,-,N/A,,Clear,140,2012-12-19 00:55:00
7:55 PM,68.4,55.6,64,29.81,10.0,SSE,12.7,-,N/A,,Clear,150,2012-12-19 01:55:00
8:55 PM,65.1,58.8,80,29.81,10.0,SSE,9.2,-,N/A,,Clear,150,2012-12-19 02:55:00
9:55 PM,62.1,60.4,94,29.82,10.0,SSE,6.9,-,N/A,,Clear,150,2012-12-19 03:55:00
10:55 PM,61.3,61.2,99,29.83,10.0,SSE,6.9,-,N/A,,Scattered Clouds,160,2012-12-19 04:55:00
10:59 PM,62.6,60.8,94,29.83,10.0,SSE,6.9,-,N/A,,Mostly Cloudy,160,2012-12-19 04:59:00
11:03 PM,62.6,62.6,100,29.83,10.0,SSE,6.9,-,N/A,,Mostly Cloudy,160,2012-12-19 05:03:00
11:55 PM,65.5,65.3,99,29.82,10.0,South,10.4,-,N/A,,Overcast,170,2012-12-19 05:55:00